📊 Raw Sensor Data

Showing records 40376 to 40400 of 84,962 total

ID Distance (ft) Battery V Battery A Int Temp (°F) Int Humid (%) Ext Temp (°F) Solar V RSSI SNR Time Stamp
44599 15.6 3.94 0 97 41 92 5.10 -71 9 06/26/2025 02:30 PM
44598 15.6 3.94 0 95 41 87 5.10 -70 8 06/26/2025 02:15 PM
44597 15.6 3.94 0 93 41 86 5.10 -69 8 06/26/2025 02:00 PM
44596 15.6 3.94 0 91 42 83 5.10 -71 8 06/26/2025 01:45 PM
44595 15.6 3.94 0 90 42 84 5.10 -72 8 06/26/2025 01:30 PM
44594 15.6 4.08 0 89 42 84 5.10 -69 7 06/26/2025 01:15 PM
44593 15.6 3.94 0 87 43 82 5.10 -70 7 06/26/2025 01:00 PM
44592 15.6 3.94 0 85 43 80 5.10 -71 8 06/26/2025 12:45 PM
44591 15.7 3.94 0 85 43 81 5.10 -67 8 06/26/2025 12:30 PM
44590 15.7 3.94 0 83 43 82 5.10 -68 8 06/26/2025 12:15 PM
44589 15.7 3.94 0 82 43 82 5.10 -67 8 06/26/2025 12:00 PM
44588 15.7 3.94 0 81 43 80 5.10 -66 7 06/26/2025 11:45 AM
44587 15.7 3.94 0 80 43 81 5.10 -66 8 06/26/2025 11:30 AM
44586 15.7 4.12 0 78 43 81 5.10 -68 7 06/26/2025 11:15 AM
44585 15.7 3.96 0 77 43 78 5.10 -67 7 06/26/2025 11:00 AM
44584 15.7 3.94 0 77 43 76 5.10 -68 7 06/26/2025 10:45 AM
44583 15.7 4.05 0 75 43 78 5.10 -68 7 06/26/2025 10:15 AM
44582 15.7 3.94 0 74 43 75 5.10 -68 8 06/26/2025 10:00 AM
44581 15.7 3.94 0 73 44 74 5.10 -69 8 06/26/2025 09:45 AM
44580 15.7 3.94 0 72 44 74 5.10 -68 8 06/26/2025 09:30 AM
44579 15.7 3.94 0 71 44 69 5.10 -67 7 06/26/2025 09:15 AM
44578 15.8 4.02 0 71 44 74 5.10 -66 8 06/26/2025 09:00 AM
44577 15.8 3.94 0 70 44 74 5.10 -68 8 06/26/2025 08:45 AM
44576 15.8 4.09 5 69 44 74 5.10 -67 7 06/26/2025 08:30 AM
44575 15.8 3.94 5 67 43 73 5.10 -67 8 06/26/2025 08:15 AM